Regional Weather Roundup
Issued by NWS

Home | Current Version | Previous Version | Graphics & Text | Print | Product List | Glossary On
Versions: 1 2 3 4 5 6 7 8 9 10 11 12 13 14 15 16 17 18 19 20 21 22 23 24 25 26 27 28 29 30 31 32 33 34 35 36 37 38 39 40 41 42 43 44 45 46 47 48 49
000
ASUS45 KSLC 011210
RWRUT

UTAH REGIONAL WEATHER ROUNDUP
NATIONAL WEATHER SERVICE SALT LAKE CITY UT
600 AM MDT WED OCT 01 2014

UTZ001>011-023>025-011300-

NORTHERN UTAH

CITY           SKY/WX    TMP DP  RH WIND       PRES   REMARKS
HILL AFB       PTCLDY    43  34  70 N5        30.00R
LOGAN          NOT AVBL
OGDEN          MOCLDY    44  37  76 N3        29.99R
PROVO AIRPORT  CLOUDY    48  37  66 NW13      29.98S
SALT LAKE CITY MOCLDY    48  38  68 CALM      29.99R
VERNAL         LGT RAIN  47  41  80 N3        29.94R
WENDOVER       CLEAR     48  28  46 NW15      30.05R
HEBER CITY     CLOUDY    43  41  93 CALM      29.97S
WEST JORDAN    MOCLDY    45  37  76 W6        30.01R

$$

UTZ012>022-026-027-011300-

SOUTHERN UTAH

CITY           SKY/WX    TMP DP  RH WIND       PRES   REMARKS
BRYCE CANYON   PTCLDY    35  32  88 NW6       30.03R WCI  30
CEDAR CITY     MOCLDY    45  42  89 CALM      30.00R
MILFORD        LGT RAIN  48  43  82 N16G26    30.01R
MOAB/CYNLANDS  NOT AVBL
PRICE          CLOUDY    46  41  82 NE5       29.94F
ST GEORGE      CLOUDY    55  43  62 S6        29.87R
KANAB            N/A     45  39  81 NE5       29.96R

$$

REGIONAL REPORTS     COLORADO/ARIZONA

CITY           SKY/WX    TMP DP  RH WIND       PRES   REMARKS
CRAIG, CO      CLOUDY    45  41  86 CALM      29.96S
GRAND JUNCTION MOCLDY    46  43  89 NW10      29.91R
RIFLE          MOCLDY    44  41  89 E7        29.94R
MONTROSE       CLOUDY    47  39  74 E7        29.95S
CORTEZ         MOCLDY    41  39  93 NE3       29.95S
PAGE, AZ       NOT AVBL
GRAND CANYON   PTCLDY    34  32  92 CALM      30.03R
KINGMAN        CLEAR     60  41  49 SE12      29.87R
FLAGSTAFF      CLEAR     37  33  85 CALM      30.05R

$$

REGIONAL REPORTS    NEVADA/IDAHO/WYOMING

CITY           SKY/WX    TMP DP  RH WIND       PRES   REMARKS
LAS VEGAS, NV  CLEAR     68  39  34 S6        29.77R
ELY            PTCLDY    36  31  82 NW9       30.08R WCI  29
ELKO           CLEAR     34  27  75 CALM      30.11R
POCATELLO, ID  CLOUDY    43  37  79 SW8       30.03R
BURLEY         CLOUDY    42  37  82 CALM      30.03R
EVANSTON, WY   MOCLDY    35  32  88 NW8       30.00R WCI  29
ROCK SPRINGS   CLOUDY    35  32  88 W6        29.96S WCI  30

$$



USA.gov is the U.S. government's official web portal to all federal, state and local government web resources and services.